TimeCDT,TemperatureF,Dew PointF,Humidity,Sea Level PressureIn,VisibilityMPH,Wind Direction,Wind SpeedMPH,Gust SpeedMPH,PrecipitationIn,Events,Conditions,WindDirDegrees,DateUTC
12:14 AM,59.0,55.4,88,29.87,7.0,NNE,3.5,-,N/A,,Clear,30,2013-08-06 05:14:00
12:34 AM,60.8,57.2,88,29.86,10.0,Calm,Calm,-,N/A,,Clear,0,2013-08-06 05:34:00
12:53 AM,59.0,55.4,88,29.86,10.0,Calm,Calm,-,N/A,,Clear,0,2013-08-06 05:53:00
1:14 AM,59.0,55.4,88,29.85,7.0,Calm,Calm,-,N/A,,Clear,0,2013-08-06 06:14:00
1:33 AM,57.2,55.4,94,29.85,7.0,Calm,Calm,-,N/A,,Clear,0,2013-08-06 06:33:00
1:54 AM,59.0,57.2,94,29.85,7.0,Calm,Calm,-,N/A,,Clear,0,2013-08-06 06:54:00
2:14 AM,57.2,55.4,94,29.85,5.0,SW,3.5,-,N/A,,Clear,230,2013-08-06 07:14:00
2:33 AM,57.2,55.4,94,29.85,7.0,SSW,4.6,-,N/A,,Clear,210,2013-08-06 07:33:00
2:53 AM,57.2,55.4,94,29.83,5.0,Calm,Calm,-,N/A,,Clear,0,2013-08-06 07:53:00
3:14 AM,57.2,55.4,94,29.82,4.0,South,3.5,-,N/A,,Clear,170,2013-08-06 08:14:00
3:33 AM,57.2,55.4,94,29.82,3.0,Calm,Calm,-,N/A,,Clear,0,2013-08-06 08:33:00
3:53 AM,57.2,55.4,94,29.81,1.0,SE,4.6,-,N/A,,Mist,130,2013-08-06 08:53:00
4:14 AM,57.2,55.4,94,29.80,3.0,SSE,3.5,-,N/A,,Clear,150,2013-08-06 09:14:00
4:33 AM,57.2,55.4,94,29.80,5.0,ESE,3.5,-,N/A,,Clear,120,2013-08-06 09:33:00
4:53 AM,57.2,55.4,94,29.82,4.0,Calm,Calm,-,N/A,,Clear,0,2013-08-06 09:53:00
5:14 AM,57.2,55.4,94,29.80,4.0,ESE,3.5,-,N/A,,Clear,120,2013-08-06 10:14:00
5:33 AM,59.0,57.2,94,29.80,3.0,SSE,3.5,-,N/A,,Clear,150,2013-08-06 10:33:00
5:53 AM,59.0,57.2,94,29.80,3.0,Calm,Calm,-,N/A,,Scattered Clouds,0,2013-08-06 10:53:00
6:14 AM,59.0,57.2,94,29.79,3.0,SE,3.5,-,N/A,,Scattered Clouds,130,2013-08-06 11:14:00
6:33 AM,59.0,57.2,94,29.78,3.0,ESE,3.5,-,N/A,,Scattered Clouds,110,2013-08-06 11:33:00
6:53 AM,60.8,57.2,88,29.79,2.5,SSE,4.6,-,N/A,,Mist,150,2013-08-06 11:53:00
7:14 AM,60.8,59.0,94,29.79,4.0,SE,5.8,-,N/A,,Mist,140,2013-08-06 12:14:00
7:33 AM,60.8,59.0,94,29.78,5.0,SSE,4.6,-,N/A,,Clear,160,2013-08-06 12:33:00
7:54 AM,60.8,59.0,94,29.78,5.0,South,5.8,-,N/A,,Clear,170,2013-08-06 12:54:00
8:13 AM,62.6,60.8,94,29.78,5.0,South,4.6,-,N/A,,Clear,190,2013-08-06 13:13:00
8:34 AM,64.4,60.8,88,29.78,7.0,South,3.5,-,N/A,,Clear,190,2013-08-06 13:34:00
8:54 AM,64.4,60.8,88,29.77,10.0,South,4.6,-,N/A,,Clear,180,2013-08-06 13:54:00
9:13 AM,66.2,60.8,83,29.77,10.0,Calm,Calm,-,N/A,,Clear,0,2013-08-06 14:13:00
9:34 AM,69.8,62.6,78,29.76,10.0,South,3.5,-,N/A,,Clear,190,2013-08-06 14:34:00
9:54 AM,69.8,62.6,78,29.76,10.0,SSW,4.6,-,N/A,,Clear,210,2013-08-06 14:54:00
10:13 AM,71.6,62.6,73,29.76,10.0,SW,4.6,-,N/A,,Clear,220,2013-08-06 15:13:00
10:34 AM,73.4,62.6,69,29.75,10.0,West,5.8,-,N/A,,Clear,260,2013-08-06 15:34:00
10:54 AM,75.2,62.6,65,29.75,10.0,WSW,5.8,-,N/A,,Clear,250,2013-08-06 15:54:00
11:13 AM,75.2,62.6,65,29.76,10.0,West,3.5,-,N/A,,Clear,280,2013-08-06 16:13:00
11:34 AM,78.8,60.8,54,29.76,10.0,WNW,11.5,-,N/A,,Clear,290,2013-08-06 16:34:00
11:54 AM,78.8,60.8,54,29.76,10.0,WNW,9.2,-,N/A,,Clear,300,2013-08-06 16:54:00
12:13 PM,78.8,60.8,54,29.76,10.0,WNW,9.2,-,N/A,,Clear,300,2013-08-06 17:13:00
12:34 PM,78.8,62.6,57,29.76,10.0,NW,6.9,-,N/A,,Clear,320,2013-08-06 17:34:00
12:54 PM,80.6,62.6,54,29.76,10.0,WNW,5.8,-,N/A,,Clear,300,2013-08-06 17:54:00
1:13 PM,80.6,60.8,51,29.76,10.0,WNW,12.7,-,N/A,,Clear,290,2013-08-06 18:13:00
1:34 PM,80.6,60.8,51,29.75,10.0,WNW,11.5,-,N/A,,Clear,290,2013-08-06 18:34:00
1:54 PM,82.4,60.8,48,29.76,10.0,West,8.1,-,N/A,,Clear,280,2013-08-06 18:54:00
2:13 PM,82.4,60.8,48,29.76,10.0,West,12.7,19.6,N/A,,Clear,280,2013-08-06 19:13:00
2:34 PM,82.4,60.8,48,29.76,10.0,West,13.8,18.4,N/A,,Clear,270,2013-08-06 19:34:00
2:54 PM,82.4,62.6,51,29.76,10.0,West,11.5,-,N/A,,Clear,260,2013-08-06 19:54:00
3:13 PM,82.4,62.6,51,29.75,10.0,WSW,11.5,20.7,N/A,,Clear,250,2013-08-06 20:13:00
3:34 PM,80.6,62.6,54,29.75,10.0,West,13.8,-,N/A,,Clear,260,2013-08-06 20:34:00
3:54 PM,82.4,62.6,51,29.73,10.0,WSW,11.5,19.6,N/A,,Clear,250,2013-08-06 20:54:00
4:13 PM,80.6,62.6,54,29.73,10.0,WSW,12.7,-,N/A,,Clear,250,2013-08-06 21:13:00
4:34 PM,80.6,62.6,54,29.72,10.0,WSW,11.5,18.4,N/A,,Clear,250,2013-08-06 21:34:00
4:54 PM,80.6,62.6,54,29.72,10.0,West,12.7,18.4,N/A,,Clear,260,2013-08-06 21:54:00
5:13 PM,80.6,62.6,54,29.71,10.0,WSW,11.5,-,N/A,,Clear,250,2013-08-06 22:13:00
5:34 PM,80.6,62.6,54,29.72,10.0,WSW,13.8,18.4,N/A,,Clear,250,2013-08-06 22:34:00
5:54 PM,80.6,62.6,54,29.71,10.0,West,10.4,19.6,N/A,,Clear,260,2013-08-06 22:54:00
6:13 PM,80.6,62.6,54,29.72,10.0,WSW,15.0,21.9,N/A,,Clear,250,2013-08-06 23:13:00
6:34 PM,80.6,62.6,54,29.73,10.0,West,13.8,-,N/A,,Clear,260,2013-08-06 23:34:00
6:54 PM,80.6,62.6,54,29.74,10.0,West,11.5,-,N/A,,Clear,280,2013-08-06 23:54:00
7:13 PM,78.8,60.8,54,29.74,10.0,West,13.8,19.6,N/A,,Clear,270,2013-08-07 00:13:00
7:33 PM,69.8,57.2,64,29.78,5.0,North,12.7,32.2,0.06,Rain,Light Rain,350,2013-08-07 00:33:00
7:53 PM,68.0,59.0,73,29.79,10.0,NNW,5.8,-,0.06,Rain,Light Rain,330,2013-08-07 00:53:00
8:14 PM,66.2,57.2,73,29.78,10.0,NW,5.8,-,N/A,,Clear,320,2013-08-07 01:14:00
8:34 PM,64.4,57.2,77,29.79,10.0,WNW,5.8,-,N/A,,Clear,290,2013-08-07 01:34:00
8:53 PM,64.4,57.2,77,29.80,10.0,WNW,8.1,-,N/A,,Clear,290,2013-08-07 01:53:00
9:14 PM,64.4,57.2,77,29.81,10.0,WNW,5.8,-,N/A,,Clear,290,2013-08-07 02:14:00
9:34 PM,60.8,57.2,88,29.82,10.0,WNW,4.6,-,N/A,,Clear,290,2013-08-07 02:34:00
9:53 PM,60.8,57.2,88,29.83,10.0,West,5.8,-,N/A,,Clear,280,2013-08-07 02:53:00
10:14 PM,62.6,57.2,82,29.84,10.0,NW,6.9,-,N/A,,Clear,310,2013-08-07 03:14:00
10:34 PM,62.6,59.0,88,29.85,10.0,NW,8.1,-,N/A,,Clear,320,2013-08-07 03:34:00
10:53 PM,62.6,60.8,94,29.85,10.0,NNW,12.7,16.1,N/A,,Clear,340,2013-08-07 03:53:00
11:14 PM,62.6,60.8,94,29.86,10.0,NNW,9.2,-,N/A,,Clear,340,2013-08-07 04:14:00
11:34 PM,62.6,59.0,88,29.87,10.0,NW,6.9,-,N/A,,Clear,320,2013-08-07 04:34:00
11:53 PM,62.6,59.0,88,29.87,10.0,NNW,8.1,-,N/A,,Clear,330,2013-08-07 04:53:00